STARLINK-31729 (59610 NORAD) Tracking and Keplerian Element Data

This shows tracking and keplerian element data for the satellite.

Feedback or suggestion? Click here.




ElementValue
Catalog59610
NameSTARLINK-31729
Epoch Orbit750
Epoch Day160.17377018
Epoch Year2024
RAAN87.9267
Inclination43.0025
Eccentricity0.0001456
Argument of Perigee285.6363
Mean Anonmoly74.4333
Mean Motion15.40724567
Decay Rate0.00014063
L11 59610U 24080K 24160.17377018 .00014063 00000+0 34301-3 0 9999
L22 59610 43.0025 87.9267 0001456 285.6363 74.4333 15.40724567 7502



Live tracking and technical data element details for STARLINK-31729 (NORAD 59610). STARLINK-31729 can be tracked NOW for your location showing map with azimuth and elevation plus other details from your city location.







IsCatalogInMostPopularTable: catalog: 59610, numindb: 12
Update: records affected: 1



GetName: 59610 STARLINK-31729

Hit Count: updated at: Fri, 14 Jun 2024 19:48:12 GMT